When you browse on this site, cookies collect data to enhance your experience and personalize the content and advertising you see.
Visit our Privacy Policy to learn more. By continuing to use the site, you agree to this use of cookies and data.
  • In Hungary
  • List of Countries
  • For 7 days
  • Water Temperature
  • Satellite Maps
  • Weather Map
  • News
  • Weather Widgets
  • user-avatar
    Login

    Hourly Weather Makurdi

    Today, 18 January, Friday

    Time Temperature Precipitation Wind Pressure Humidity
    00:00 +31°C° 0 mm 1 mps 748 mmHg 8%
    01:00 +30°C° 0 mm 1 mps 748 mmHg 9%
    02:00 +29°C° 0 mm 1 mps 748 mmHg 9%
    03:00 +28°C° 0 mm 1 mps 748 mmHg 9%
    04:00 +27°C° 0 mm 1 mps 748 mmHg 9%
    05:00 +27°C° 0 mm 1 mps 748 mmHg 12%
    06:00 +26°C° 0 mm 1 mps 749 mmHg 15%
    07:00 +26°C° 0 mm 1 mps 749 mmHg 18%
    08:00 +28°C° 0 mm 1 mps 749 mmHg 18%
    09:00 +31°C° 0 mm 1 mps 750 mmHg 18%
    10:00 +33°C° 0 mm 1 mps 750 mmHg 17%
    11:00 +36°C° 0 mm 2 mps 749 mmHg 14%
    12:00 +38°C° 0 mm 2 mps 749 mmHg 10%
    13:00 +39°C° 0 mm 2 mps 748 mmHg 6%
    14:00 +40°C° 0 mm 2 mps 747 mmHg 6%
    15:00 +41°C° 0 mm 2 mps 746 mmHg 5%
    16:00 +41°C° 0 mm 1 mps 746 mmHg 4%
    17:00 +39°C° 0 mm 1 mps 746 mmHg 5%
    18:00 +37°C° 0 mm 1 mps 746 mmHg 6%
    19:00 +33°C° 0 mm 0 mps 746 mmHg 6%
    20:00 +32°C° 0 mm 0 mps 747 mmHg 6%
    21:00 +32°C° 0 mm 0 mps 747 mmHg 6%
    22:00 +31°C° 0 mm 0 mps 748 mmHg 6%
    23:00 +32°C° 0 mm 1 mps 748 mmHg 7%

    Tomorrow, 19 January, Saturday

    Time Temperature Precipitation Wind Pressure Humidity
    00:00 +31°C° 0 mm 1 mps 748 mmHg 8%
    01:00 +31°C° 0 mm 1 mps 749 mmHg 9%
    02:00 +30°C° 0 mm 1 mps 749 mmHg 27%
    03:00 +29°C° 0 mm 1 mps 749 mmHg 46%
    04:00 +28°C° 0 mm 1 mps 749 mmHg 65%
    05:00 +28°C° 0 mm 1 mps 749 mmHg 69%
    06:00 +28°C° 0 mm 1 mps 749 mmHg 74%
    07:00 +27°C° 0 mm 1 mps 750 mmHg 78%
    08:00 +29°C° 0 mm 1 mps 750 mmHg 70%
    09:00 +31°C° 0 mm 2 mps 750 mmHg 62%
    10:00 +34°C° 0 mm 2 mps 751 mmHg 54%
    11:00 +36°C° 0 mm 1 mps 750 mmHg 43%
    12:00 +39°C° 0 mm 1 mps 749 mmHg 33%
    13:00 +39°C° 0 mm 0 mps 749 mmHg 23%
    14:00 +39°C° 0 mm 0 mps 748 mmHg 22%
    15:00 +39°C° 0 mm 0 mps 747 mmHg 20%
    16:00 +39°C° 0 mm 0 mps 746 mmHg 19%
    17:00 +38°C° 0 mm 0 mps 747 mmHg 20%
    18:00 +36°C° 0 mm 0 mps 747 mmHg 21%
    19:00 +37°C° 0 mm 1 mps 747 mmHg 22%
    20:00 +34°C° 0 mm 0 mps 748 mmHg 23%
    21:00 +34°C° 0 mm 0 mps 748 mmHg 24%
    22:00 +33°C° 0 mm 0 mps 749 mmHg 25%
    23:00 +34°C° 0 mm 1 mps 749 mmHg 29%

    Day after tomorrow, 20 January, Sunday

    Time Temperature Precipitation Wind Pressure Humidity
    00:00 +34°C° 0 mm 2 mps 749 mmHg 32%
    01:00 +34°C° 0 mm 3 mps 749 mmHg 35%
    02:00 +33°C° 0 mm 3 mps 749 mmHg 45%
    03:00 +32°C° 0 mm 4 mps 748 mmHg 55%
    04:00 +30°C° 0 mm 4 mps 748 mmHg 64%
    05:00 +30°C° 0 mm 3 mps 749 mmHg 66%
    06:00 +29°C° 0 mm 3 mps 749 mmHg 67%
    07:00 +29°C° 0 mm 2 mps 750 mmHg 69%
    08:00 +30°C° 0 mm 2 mps 750 mmHg 62%
    09:00 +32°C° 0 mm 2 mps 750 mmHg 55%
    10:00 +34°C° 0 mm 2 mps 751 mmHg 49%
    11:00 +37°C° 0 mm 2 mps 750 mmHg 41%
    12:00 +40°C° 0 mm 1 mps 749 mmHg 33%
    13:00 +40°C° 0 mm 0 mps 748 mmHg 25%
    14:00 +43°C° 0 mm 1 mps 747 mmHg 23%
    15:00 +43°C° 0 mm 1 mps 746 mmHg 22%
    16:00 +43°C° 0 mm 1 mps 745 mmHg 20%
    17:00 +41°C° 0 mm 1 mps 746 mmHg 21%
    18:00 +40°C° 0 mm 1 mps 746 mmHg 22%
    19:00 +39°C° 0 mm 1 mps 746 mmHg 23%
    20:00 +37°C° 0 mm 1 mps 747 mmHg 25%
    21:00 +37°C° 0 mm 1 mps 748 mmHg 26%
    22:00 +36°C° 0 mm 1 mps 748 mmHg 27%
    23:00 +36°C° 0 mm 1 mps 748 mmHg 28%

    21 January, Monday

    Time Temperature Precipitation Wind Pressure Humidity
    00:00 +35°C° 0 mm 1 mps 748 mmHg 29%
    01:00 +35°C° 0 mm 2 mps 748 mmHg 30%
    02:00 +34°C° 0 mm 2 mps 748 mmHg 40%
    03:00 +33°C° 0 mm 3 mps 748 mmHg 51%
    04:00 +31°C° 0 mm 3 mps 748 mmHg 61%
    05:00 +30°C° 0 mm 3 mps 748 mmHg 65%
    06:00 +30°C° 0 mm 3 mps 749 mmHg 69%
    07:00 +29°C° 0 mm 3 mps 749 mmHg 72%
    08:00 +31°C° 0 mm 3 mps 749 mmHg 67%
    09:00 +33°C° 0 mm 3 mps 750 mmHg 61%
    10:00 +35°C° 0 mm 3 mps 750 mmHg 55%
    11:00 +36°C° 0 mm 3 mps 750 mmHg 48%
    12:00 +38°C° 0 mm 2 mps 749 mmHg 41%
    13:00 +40°C° 0 mm 2 mps 748 mmHg 34%
    14:00 +40°C° 0 mm 2 mps 747 mmHg 34%
    15:00 +40°C° 0 mm 2 mps 746 mmHg 34%
    16:00 +39°C° 0 mm 2 mps 745 mmHg 34%
    17:00 +39°C° 0 mm 2 mps 746 mmHg 35%
    18:00 +38°C° 0 mm 2 mps 746 mmHg 36%
    19:00 +37°C° 0 mm 1 mps 746 mmHg 37%
    20:00 +36°C° 0 mm 1 mps 747 mmHg 38%
    21:00 +37°C° 0 mm 2 mps 748 mmHg 40%
    22:00 +36°C° 0 mm 2 mps 748 mmHg 42%
    23:00 +35°C° 0 mm 2 mps 748 mmHg 44%

    22 January, Tuesday

    Time Temperature Precipitation Wind Pressure Humidity
    00:00 +35°C° 0 mm 3 mps 748 mmHg 46%
    01:00 +34°C° 0 mm 4 mps 747 mmHg 49%
    02:00 +33°C° 0 mm 4 mps 747 mmHg 55%
    03:00 +32°C° 0 mm 4 mps 747 mmHg 62%
    04:00 +30°C° 0 mm 3 mps 747 mmHg 68%
    05:00 +30°C° 0 mm 3 mps 747 mmHg 70%
    06:00 +29°C° 0 mm 3 mps 748 mmHg 73%
    07:00 +29°C° 0 mm 3 mps 749 mmHg 75%
    08:00 +30°C° 0 mm 3 mps 749 mmHg 69%
    09:00 +31°C° 0 mm 3 mps 749 mmHg 64%
    10:00 +34°C° 0 mm 2 mps 750 mmHg 59%
    11:00 +36°C° 0 mm 2 mps 749 mmHg 51%
    12:00 +38°C° 0 mm 2 mps 748 mmHg 44%
    13:00 +40°C° 0 mm 2 mps 747 mmHg 37%
    14:00 +40°C° 0 mm 2 mps 746 mmHg 35%
    15:00 +40°C° 0 mm 2 mps 746 mmHg 33%
    16:00 +41°C° 0 mm 1 mps 745 mmHg 31%
    17:00 +40°C° 0 mm 1 mps 745 mmHg 32%
    18:00 +39°C° 0 mm 1 mps 745 mmHg 33%
    19:00 +37°C° 0 mm 1 mps 746 mmHg 34%
    20:00 +36°C° 0 mm 1 mps 746 mmHg 35%
    21:00 +36°C° 0 mm 1 mps 747 mmHg 36%
    22:00 +36°C° 0 mm 2 mps 747 mmHg 38%
    23:00 +35°C° 0 mm 3 mps 747 mmHg 44%

    23 January, Wednesday

    Time Temperature Precipitation Wind Pressure Humidity
    00:00 +34°C° 0 mm 4 mps 747 mmHg 49%
    01:00 +33°C° 0 mm 5 mps 747 mmHg 55%
    02:00 +32°C° 0 mm 4 mps 747 mmHg 59%
    03:00 +32°C° 0 mm 4 mps 747 mmHg 64%
    04:00 +30°C° 0 mm 3 mps 747 mmHg 68%
    05:00 +30°C° 0 mm 3 mps 747 mmHg 70%
    06:00 +29°C° 0 mm 3 mps 748 mmHg 72%
    07:00 +29°C° 0 mm 3 mps 748 mmHg 73%
    08:00 +30°C° 0 mm 3 mps 749 mmHg 67%
    09:00 +33°C° 0 mm 3 mps 749 mmHg 61%
    10:00 +34°C° 0 mm 3 mps 749 mmHg 55%
    11:00 +36°C° 0 mm 3 mps 749 mmHg 49%
    12:00 +38°C° 0 mm 3 mps 748 mmHg 43%
    13:00 +39°C° 0 mm 3 mps 747 mmHg 37%
    14:00 +40°C° 0 mm 3 mps 746 mmHg 36%
    15:00 +40°C° 0 mm 3 mps 745 mmHg 34%
    16:00 +40°C° 0 mm 2 mps 745 mmHg 33%
    17:00 +39°C° 0 mm 2 mps 745 mmHg 34%
    18:00 +38°C° 0 mm 2 mps 745 mmHg 35%
    19:00 +36°C° 0 mm 1 mps 746 mmHg 36%
    20:00 +37°C° 0 mm 2 mps 746 mmHg 39%
    21:00 +36°C° 0 mm 2 mps 747 mmHg 42%
    22:00 +35°C° 0 mm 3 mps 747 mmHg 45%
    23:00 +34°C° 0 mm 4 mps 747 mmHg 51%
    Show more